{"data":{"norad_id":67816,"intl_designator":"2026-032V","name":"STARLINK-36343","alt_names":[],"object_type":"PAYLOAD","status":"ACTIVE","operator":null,"country":"US","launch_date":"2026-02-15","launch_site_code":"AFWTR","launch_vehicle":null,"mission":null,"orbit_class":"UNKNOWN","rcs_meters":null,"size_class":null,"mass_kg":null,"dimensions":null,"purposes":["comms"],"wikipedia_slug":null,"has_3d_model":false,"image_url":null,"decayed_at":null,"tle_current":{"epoch":"2026-09-19T17:55:15.729312Z","epoch_age_seconds":131607,"freshness":"FRESH","line1":"1 67816U 26032V   26262.74670983  .00015167  00000+0  47102-3 0  9999","line2":"2 67816  97.2853  89.2220 0001792  94.8252 265.3196 15.33455581 34702","mean_motion":15.33455581,"eccentricity":0.0001792,"inclination_deg":97.2853,"raan_deg":89.222,"arg_perigee_deg":94.8252,"mean_anomaly_deg":265.3196,"bstar":0.00047102,"rev_number":3470,"period_min":93.905556694439,"perigee_km":464.28531120173,"apogee_km":466.73807489331,"semimajor_km":6843.6486930475,"source":"CELESTRAK","updated_at":"2026-09-20T09:00:43.665849Z"}}}